Flag for United Kingdom Weather past 2 weeks in Glasgow, Scotland, United Kingdom

Now
39 °F

Light rain. Broken clouds.


Feels Like: 30 °F
Forecast: 36 / 46 °F
Wind: 17 mph from West

Location: Glasgow Airport

Current Time: Mar 29, 2015 at 9:07:09 PM

Latest Report: Mar 29, 2015 at 8:20 PM


Visibility: N/A

Pressure: 29.27 "Hg

Humidity: 87%

Dew point: 36 °F

Location of GlasgowLocation

Historic Weather in Glasgow — Graph

°F

Glasgow temperature yesterday

Maximum temperature yesterday: 54 °F (at 10:50 AM)
Minimum temperature yesterday: 39 °F (at 10:50 PM)
Average temperature yesterday: 45 °F

Past Weeks' High & Low Weather Summary

 TemperatureHumidityPressure
High54 °F (Mar 18, 4:50 PM)100% (Mar 15, 6:20 AM)30.66 "Hg (Mar 15, 6:20 AM)
Low27 °F (Mar 15, 6:20 AM)44% (Mar 21, 2:20 PM)29.18 "Hg (Mar 29, 9:50 AM)
Average42 °F81%30.08 "Hg
* Reported Mar 14 6:20 PM — Mar 29 7:50 PM, Glasgow, Weather by CustomWeather, © 2015

Note: Actual official high and low records may vary slightly from our data, if they occured in-between our weather recording intervals... More about our weather records

Advertising

Glasgow weather history for previous 24 hours

 ConditionsComfort  
Time TempWeatherWind HumidityBarometerVisibility
7:50 PM
Sun, Mar 29
41 °FLight rain. Partly sunny.16 mph76%29.27 "HgN/A
7:20 PM41 °FPartly sunny.18 mph76%29.24 "HgN/A
6:50 PM41 °FLight rain. Partly sunny.18 mph81%29.24 "HgN/A
6:20 PM43 °FScattered clouds.18 mph71%29.21 "HgN/A
5:50 PM45 °FLight rain. Partly sunny.18 mph71%29.21 "HgN/A
5:20 PM45 °FScattered clouds.16 mph76%29.21 "HgN/A
4:50 PM41 °FRain. Partly sunny.22 mph87%29.21 "Hg3 mi
4:20 PM45 °FScattered clouds.14 mph81%29.18 "HgN/A
3:50 PM46 °FBroken clouds.17 mph76%29.18 "HgN/A
3:20 PM45 °FPartly sunny.14 mph81%29.18 "HgN/A
2:50 PM43 °FLight rain. Partly sunny.15 mph87%29.18 "HgN/A
2:20 PM43 °FLight rain. Partly sunny.13 mph87%29.18 "HgN/A
1:50 PM43 °FMostly cloudy.13 mph87%29.21 "HgN/A
1:20 PM43 °FLight rain. Partly sunny.12 mph87%29.21 "HgN/A
12:50 PM43 °FLight rain. Mostly cloudy.14 mph81%29.18 "HgN/A
12:20 PM45 °FOvercast.12 mph81%29.18 "HgN/A
11:50 AM45 °FPartly sunny.8 mph81%29.18 "HgN/A
11:20 AM43 °FLight rain. Broken clouds.8 mph87%29.18 "HgN/A
10:50 AM43 °FLight rain. Mostly cloudy.8 mph87%29.18 "HgN/A
10:20 AM43 °FLight rain. Mostly cloudy.7 mph87%29.18 "HgN/A
9:50 AM43 °FLight rain. Partly sunny.9 mph93%29.18 "HgN/A
9:20 AM43 °FLight rain. Overcast.7 mph93%29.21 "HgN/A
8:50 AM41 °FMostly cloudy.5 mph93%29.21 "HgN/A
8:20 AM41 °FBroken clouds.1 mph93%29.24 "HgN/A
7:50 AM39 °FLight rain. Passing clouds.2 mph93%29.24 "HgN/A
7:20 AM41 °FLight rain. Mostly cloudy.No wind87%29.27 "HgN/A
6:50 AM39 °FMostly cloudy.1 mph93%29.27 "HgN/A
6:20 AM39 °FPassing clouds.6 mph93%29.30 "HgN/A
5:50 AM39 °FPassing clouds.7 mph93%29.30 "HgN/A
5:20 AM39 °FPassing clouds.7 mph93%29.30 "HgN/A
4:50 AM39 °FPassing clouds.7 mph93%29.33 "HgN/A
4:20 AM37 °FPassing clouds.5 mph93%29.33 "HgN/A
3:50 AM39 °FPassing clouds.8 mph87%29.33 "HgN/A
3:20 AM39 °FPassing clouds.7 mph87%29.36 "HgN/A
2:50 AM39 °FOvercast.5 mph93%29.36 "HgN/A
2:20 AM39 °FOvercast.8 mph87%29.36 "HgN/A
12:50 AM39 °FMostly cloudy.8 mph93%29.36 "HgN/A
12:20 AM39 °FPassing clouds.6 mph93%29.33 "HgN/A
11:50 PM
Sat, Mar 28
39 °FLight rain. Mostly cloudy.10 mph93%29.33 "HgN/A
11:20 PM39 °FLight rain. Overcast.6 mph93%29.30 "Hg4 mi
10:50 PM39 °FLight rain. Overcast.6 mph93%29.30 "HgN/A
10:20 PM41 °FLight rain. Passing clouds.5 mph93%29.30 "HgN/A
9:50 PM41 °FLight rain. Mostly cloudy.2 mph93%29.33 "HgN/A
9:20 PM41 °FLight rain. Mostly cloudy.6 mph93%29.36 "Hg4 mi
Weather by CustomWeather, © 2015

See weather overviewHow to use our weather pages